[[{"header":{"parameterUnit":"m.s-1","parameterCategory":1,"la1":30.2991,"la2":30.254,"lo1":-89.0895,"lo2":-89.0444,"dy":0.0017,"dx":0.0017,"nx":28,"ny":28,"refTime":"2023-09-25T21:00:00:Z","depth":0,"parameterNumber":2,"parameterNumberName":"U-component_of_WINDS"},"data":[0,0,0,0,0,0,0,0,0,0,0,0,0,0,0,0,0,0,0,0,0,0,0,0,0,0,0,0,0,0,0,0,0,0,0,0,0,0,0,0,0,0,0,0,0,0,0,0,0,0,0,0,0,0,0,0,0,0,-1.9113,-1.9113,0,-1.9143,-1.9144,-1.9144,-1.9084,-1.9082,-1.908,-1.9078,-1.911,-1.9112,-1.9115,0,0,0,0,0,0,0,0,0,0,0,0,0,-1.9003,-1.9005,-1.9113,-1.9113,-1.9114,-1.9143,-1.9144,-1.9144,-1.9085,-1.9082,-1.908,-1.9077,-1.9109,-1.9112,-1.9115,0,0,0,0,0,0,0,0,0,0,0,0,0,-1.9044,-1.9006,-1.9113,-1.9088,-1.9086,-1.9143,-1.9144,-1.9144,-1.9085,-1.9082,-1.9079,-1.9076,-1.9108,-1.9112,-1.9116,-1.9199,0,0,-1.9128,-1.913,0,0,0,0,0,0,0,0,-1.9042,-1.9048,-1.9091,-1.9089,-1.9087,-1.9107,-1.9116,-1.9163,-1.9086,-1.9085,-1.9078,-1.9075,-1.9111,-1.9115,-1.9127,-1.9201,-1.9202,-1.9128,-1.9131,-1.9132,-1.9134,0,0,0,0,0,0,0,-1.9039,-1.9046,-1.9125,-1.9092,-1.9089,-1.9075,-1.9077,-1.9125,-1.9114,-1.9085,-1.9081,-1.9085,-1.911,-1.9123,-1.9127,-1.9203,-1.9128,-1.9132,-1.9134,-1.9136,-1.9347,-1.935,0,0,0,0,0,0,-1.9039,-1.9044,-1.9124,-1.9126,-1.9057,-1.9079,-1.9082,-1.9104,-1.9114,-1.9112,-1.9088,-1.9082,-1.9118,-1.9123,-1.9128,-1.9227,-1.9132,-1.9136,-1.9138,-1.9344,-1.9348,-1.9351,0,0,0,0,0,0,-1.9037,-1.9047,-1.9123,-1.9084,-1.9093,-1.9084,-1.9109,-1.9106,-1.9119,-1.9116,-1.9114,-1.9104,-1.9116,-1.9122,-1.9182,-1.9227,-1.9138,-1.9142,-1.934,-1.9345,-1.9349,-1.9425,0,0,0,0,0,0,-1.9034,-1.9047,-1.9078,-1.9085,-1.9095,-1.9177,-1.9112,-1.9109,-1.9126,-1.912,-1.913,-1.9129,-1.9114,-1.9177,-1.9186,-1.9231,-1.9145,-1.9336,-1.9342,-1.9348,-1.9419,-1.9432,-1.9444,0,0,0,0,0,-1.9031,-1.9099,-1.908,-1.909,-1.9134,-1.9179,-1.9185,-1.9166,-1.913,-1.9162,-1.916,-1.9129,-1.9221,-1.9183,-1.9193,-1.924,-1.9333,-1.934,-1.9347,-1.9413,-1.943,-1.9443,0,0,0,0,0,0,-1.9097,-1.9099,-1.9079,-1.9151,-1.9166,-1.9169,-1.9209,-1.9184,-1.9209,-1.9202,-1.9177,-1.918,-1.9245,-1.9248,-1.9206,-1.9322,-1.9271,-1.928,-1.9317,-1.9333,-1.9345,-1.9343,-1.9148,0,0,0,0,0,-1.912,-1.9157,-1.9156,-1.922,-1.9228,-1.9218,-1.9236,-1.9221,-1.9235,-1.924,-1.9242,-1.9257,-1.9289,-1.9311,-1.9341,-1.9419,-1.942,-1.9456,-1.9469,-1.9479,-1.9488,-1.9529,-1.9545,-1.9375,-1.9375,-1.9375,0,0,-1.9169,-1.9174,-1.9198,-1.9234,-1.9243,-1.9281,-1.9223,-1.9266,-1.9294,-1.9247,-1.9303,-1.9306,-1.932,-1.939,-1.942,-1.9395,-1.9535,-1.9488,-1.9496,-1.9499,-1.9538,-1.9554,-1.9569,-1.938,-1.9379,-1.9378,0,0,-1.9276,-1.9284,-1.9338,-1.9348,-1.9363,-1.9355,-1.9369,-1.9376,-1.9376,-1.9432,-1.9397,-1.943,-1.9486,-1.9498,-1.9512,-1.9624,-1.9596,-1.9634,-1.9699,-1.974,-1.9753,-1.9765,-1.9805,-1.982,-1.9643,-1.9643,-1.9643,0,-1.9334,-1.939,-1.9369,-1.9414,-1.943,-1.939,-1.9444,-1.9455,-1.9479,-1.9492,-1.9462,-1.9532,-1.9539,-1.9611,-1.9638,-1.965,-1.9664,-1.9633,-1.9753,-1.9765,-1.9775,-1.9813,-1.9829,-1.9647,-1.9647,-1.9646,-1.9646,0,-1.9461,-1.95,-1.9542,-1.9566,-1.9587,-1.9637,-1.9623,-1.9647,-1.963,-1.9625,-1.9683,-1.969,-1.972,-1.9736,-1.9719,-1.9805,-1.9789,-1.9757,-1.9705,-1.9797,-1.9832,-1.9846,-1.9654,-1.9652,-1.9651,-1.965,0,0,-1.9611,-1.9622,-1.9638,-1.9649,-1.9662,-1.9692,-1.974,-1.9769,-1.9791,-1.9808,-1.9848,-1.9896,-1.9867,-1.9882,-1.9866,-1.9902,-1.9991,-1.9866,-1.9866,-1.9889,-2.0086,-2.011,-2.0127,-1.9972,-1.9975,-1.9977,-2.0085,0,-1.9717,-1.98,-1.9782,-1.9863,-1.9899,-1.9861,-1.9902,-1.9915,-1.9912,-1.9943,-1.9939,-1.9974,-1.9932,-1.9941,-1.9975,-1.9973,-2.003,-1.9965,-2.0009,-2.0011,-2.0007,-2.0146,-2.0171,-2.0273,-2.0099,-2.0101,-2.0103,0,-1.9852,-1.9875,-1.996,-1.9968,-1.9982,-2.002,-2.0046,-2.0075,-2.0089,-2.0084,-2.0101,-2.0079,-2.0126,-2.0074,-2.0139,-2.0095,-2.0112,-2.0114,-2.0117,-2.0121,-2.0062,-2.0153,-2.0305,-2.032,-2.0124,-2.0122,-2.0121,0,-1.9954,-2.0006,-2.0063,-2.0073,-2.0084,-2.0111,-2.0117,-2.0127,-2.0146,-2.0169,-2.0181,-2.0208,-2.0224,-2.0246,-2.0231,-2.0194,-2.0299,-2.0245,-2.0296,-2.0297,-2.032,-2.0319,-2.0477,-2.0331,-2.0331,-2.0331,-2.033,0,-2.0074,-2.0128,-2.0109,-2.0144,-2.0203,-2.0182,-2.024,-2.0241,-2.0251,-2.0286,-2.0255,-2.0288,-2.0267,-2.0299,-2.0288,-2.0343,-2.0351,-2.0348,-2.0345,-2.0351,-2.0351,-2.0362,-2.0354,-2.0335,-2.0334,-2.0333,-2.0332,0,-2.0197,-2.0187,-2.0247,-2.0252,-2.0254,-2.0297,-2.0301,-2.0334,-2.0329,-2.0374,-2.0383,-2.0375,-2.041,-2.0398,-2.0436,-2.0429,-2.05,-2.0487,-2.0495,-2.0492,-2.0544,-2.0539,-2.0714,-2.0736,-2.0576,-2.0578,-2.0579,0,-2.0275,-2.0315,-2.0325,-2.0346,-2.0354,-2.0388,-2.0407,-2.0388,-2.0409,-2.0428,-2.0459,-2.0492,-2.0517,-2.0576,-2.0573,-2.0602,-2.059,-2.0649,-2.0594,-2.06,-2.0591,-2.0589,-2.0593,-2.066,-2.0662,-2.0664,-2.0665,0,-2.0414,-2.0407,-2.0436,-2.0463,-2.0487,-2.0507,-2.0525,-2.0544,-2.0526,-2.0551,-2.0588,-2.0607,-2.0646,-2.068,-2.0706,-2.0711,-2.0686,-2.0682,-2.0696,-2.0703,-2.0706,-2.0705,-2.0525,-2.0678,-2.0677,-2.0676,-2.0675,-2.0675,-2.0517,-2.0551,-2.0563,-2.0596,-2.0607,-2.0624,-2.0656,-2.0654,-2.0684,-2.0714,-2.0701,-2.0743,-2.0756,-2.0788,-2.0798,-2.083,-2.0807,-2.0827,-2.0831,-2.0837,-2.0843,-2.0701,-2.0835,-2.0834,-2.0834,-2.0834,-2.0833,0,-2.0654,-2.066,-2.0691,-2.0717,-2.0743,-2.0716,-2.0734,-2.0758,-2.0795,-2.0809,-2.0835,-2.0876,-2.0908,-2.0909,-2.0938,-2.0964,-2.0953,-2.0973,-2.0971,-2.0972,-2.0862,-2.0847,-2.0981,-2.0981,-2.0981,-2.0981,-2.0981,-2.0981,-2.0729,-2.0785,-2.0779,-2.084,-2.0846,-2.0886,-2.0899,-2.0915,-2.0926,-2.0974,-2.1,-2.1,-2.1009,-2.1039,-2.1067,-2.1066,-2.1079,-2.1103,-2.1098,-2.0995,-2.098,-2.0966,-2.0952,-2.1106,-2.1106,-2.1205,-2.1206,-2.1207]},{"header":{"parameterUnit":"m.s-1","parameterCategory":1,"la1":30.2991,"la2":30.254,"lo1":-89.0895,"lo2":-89.0444,"dy":0.0017,"dx":0.0017,"nx":28,"ny":28,"refTime":"2023-09-25T21:00:00:Z","depth":0,"parameterNumber":3,"parameterNumberName":"V-component_of_WINDS"},"data":[0,0,0,0,0,0,0,0,0,0,0,0,0,0,0,0,0,0,0,0,0,0,0,0,0,0,0,0,0,0,0,0,0,0,0,0,0,0,0,0,0,0,0,0,0,0,0,0,0,0,0,0,0,0,0,0,0,0,-1.9166,-1.9167,0,-1.9271,-1.9272,-1.9273,-1.9291,-1.929,-1.9289,-1.9288,-1.9395,-1.9399,-1.9403,0,0,0,0,0,0,0,0,0,0,0,0,0,-1.898,-1.8983,-1.9166,-1.9167,-1.9168,-1.9271,-1.9272,-1.9274,-1.9291,-1.929,-1.9289,-1.9288,-1.9394,-1.9399,-1.9403,0,0,0,0,0,0,0,0,0,0,0,0,0,-1.907,-1.8984,-1.9166,-1.919,-1.9193,-1.9271,-1.9272,-1.9274,-1.9291,-1.929,-1.9289,-1.9287,-1.9393,-1.9398,-1.9404,-1.9465,0,0,-1.942,-1.9423,0,0,0,0,0,0,0,0,-1.9065,-1.9077,-1.9185,-1.9188,-1.9192,-1.9267,-1.9246,-1.9338,-1.9292,-1.9254,-1.9288,-1.9287,-1.9354,-1.9362,-1.9385,-1.947,-1.9474,-1.9421,-1.9424,-1.9427,-1.9428,0,0,0,0,0,0,0,-1.9059,-1.9072,-1.9207,-1.9186,-1.9191,-1.9195,-1.9206,-1.9263,-1.931,-1.9257,-1.9259,-1.9271,-1.9355,-1.938,-1.9388,-1.9476,-1.9421,-1.9426,-1.9429,-1.9431,-1.9616,-1.9618,0,0,0,0,0,0,-1.9048,-1.9067,-1.9204,-1.9211,-1.9124,-1.9199,-1.9212,-1.9244,-1.9309,-1.9318,-1.9272,-1.9271,-1.9371,-1.9381,-1.9391,-1.9467,-1.9427,-1.9432,-1.9435,-1.9614,-1.9616,-1.9618,0,0,0,0,0,0,-1.9044,-1.906,-1.92,-1.9139,-1.9157,-1.9204,-1.924,-1.9247,-1.9271,-1.9321,-1.9329,-1.9288,-1.937,-1.9384,-1.9446,-1.9471,-1.9434,-1.9439,-1.9613,-1.9615,-1.9617,-1.9619,0,0,0,0,0,0,-1.9039,-1.9059,-1.9082,-1.914,-1.9161,-1.9253,-1.9241,-1.925,-1.9281,-1.9281,-1.9338,-1.9346,-1.937,-1.9438,-1.9452,-1.9478,-1.9444,-1.9611,-1.9614,-1.9617,-1.9617,-1.9621,-1.9625,0,0,0,0,0,-1.9032,-1.9079,-1.9084,-1.91,-1.9191,-1.9255,-1.9267,-1.9293,-1.9282,-1.9307,-1.9339,-1.9345,-1.9466,-1.9444,-1.946,-1.9488,-1.9609,-1.9613,-1.9616,-1.9615,-1.9621,-1.9625,0,0,0,0,0,0,-1.9023,-1.9087,-1.9093,-1.916,-1.9202,-1.9258,-1.9289,-1.9298,-1.9344,-1.9342,-1.9372,-1.9385,-1.9446,-1.9474,-1.9448,-1.9551,-1.9537,-1.9544,-1.9531,-1.9536,-1.954,-1.9532,-1.9448,0,0,0,0,0,-1.9029,-1.9075,-1.9128,-1.9182,-1.9203,-1.9242,-1.9271,-1.9288,-1.9332,-1.935,-1.9387,-1.9429,-1.9477,-1.9508,-1.9555,-1.9621,-1.9634,-1.9649,-1.9652,-1.9655,-1.9661,-1.9698,-1.9705,-1.963,-1.963,-1.963,0,0,-1.9041,-1.9082,-1.9109,-1.9181,-1.9216,-1.9263,-1.9257,-1.9307,-1.9342,-1.9358,-1.9419,-1.9447,-1.9497,-1.9562,-1.9592,-1.9587,-1.9684,-1.966,-1.9662,-1.9666,-1.9702,-1.9709,-1.9716,-1.9632,-1.9632,-1.9632,0,0,-1.9088,-1.9123,-1.9172,-1.9206,-1.9259,-1.9285,-1.9297,-1.9352,-1.9371,-1.9433,-1.9446,-1.9488,-1.957,-1.9605,-1.9634,-1.9694,-1.9701,-1.9708,-1.9728,-1.9764,-1.977,-1.9775,-1.9796,-1.9804,-1.9713,-1.9713,-1.9713,0,-1.9096,-1.9168,-1.9195,-1.9245,-1.9276,-1.9293,-1.9342,-1.9375,-1.944,-1.9461,-1.9453,-1.9557,-1.9592,-1.9665,-1.9679,-1.9702,-1.9716,-1.9701,-1.9767,-1.9772,-1.9778,-1.9798,-1.9806,-1.9714,-1.9714,-1.9714,-1.9714,0,-1.9176,-1.9225,-1.9258,-1.9321,-1.9356,-1.9405,-1.944,-1.9472,-1.9486,-1.9512,-1.9576,-1.9618,-1.9674,-1.9692,-1.9706,-1.9768,-1.9762,-1.9761,-1.9747,-1.9785,-1.9805,-1.9813,-1.9715,-1.9714,-1.9714,-1.9714,0,0,-1.9219,-1.9297,-1.9308,-1.9337,-1.9396,-1.9435,-1.9485,-1.9539,-1.9566,-1.9611,-1.9653,-1.9722,-1.9721,-1.9753,-1.9771,-1.9803,-1.9847,-1.9797,-1.9799,-1.9805,-1.9917,-1.9918,-1.9926,-1.9852,-1.9854,-1.9855,-1.9913,0,-1.9272,-1.9362,-1.9389,-1.9464,-1.951,-1.9526,-1.957,-1.9611,-1.9637,-1.968,-1.9709,-1.9757,-1.9752,-1.9771,-1.9803,-1.9835,-1.987,-1.9831,-1.9892,-1.9894,-1.9878,-1.9937,-1.9938,-1.999,-1.9921,-1.9922,-1.9923,0,-1.9347,-1.9393,-1.9472,-1.9526,-1.9546,-1.9585,-1.9637,-1.9678,-1.9724,-1.9741,-1.9778,-1.9793,-1.9845,-1.9829,-1.9902,-1.9875,-1.9901,-1.992,-1.9923,-1.993,-1.991,-1.9945,-2.0007,-2.0015,-1.9936,-1.9935,-1.9934,0,-1.937,-1.9452,-1.951,-1.9534,-1.9598,-1.9625,-1.9653,-1.9698,-1.9729,-1.9775,-1.9795,-1.9846,-1.9874,-1.9913,-1.9942,-1.9928,-2.0012,-1.9998,-2.0027,-2.0027,-2.0044,-2.0043,-2.0112,-2.0062,-2.0062,-2.0061,-2.0061,0,-1.9427,-1.9475,-1.9522,-1.9557,-1.9612,-1.9642,-1.9695,-1.9723,-1.9764,-1.9805,-1.9823,-1.9861,-1.9897,-1.994,-1.9963,-2.0019,-2.0032,-2.0047,-2.0052,-2.0045,-2.0043,-2.0063,-2.006,-2.0064,-2.0063,-2.0063,-2.0062,0,-1.9462,-1.9495,-1.956,-1.9615,-1.963,-1.9668,-1.9715,-1.975,-1.9777,-1.983,-1.9844,-1.9886,-1.9938,-1.997,-2.0036,-2.0052,-2.0114,-2.0118,-2.0098,-2.01,-2.0128,-2.0124,-2.0212,-2.0224,-2.0166,-2.0166,-2.0167,0,-1.9495,-1.9533,-1.9592,-1.9622,-1.965,-1.9696,-1.9729,-1.9759,-1.9792,-1.9848,-1.9877,-1.993,-1.9974,-2.0056,-2.0092,-2.0143,-2.0148,-2.0175,-2.0156,-2.0148,-2.0149,-2.0146,-2.015,-2.0178,-2.0179,-2.0179,-2.018,0,-1.9552,-1.9566,-1.9612,-1.9664,-1.9701,-1.9743,-1.9785,-1.9808,-1.9846,-1.9882,-1.9936,-1.997,-2.0037,-2.0089,-2.0143,-2.0172,-2.0182,-2.0186,-2.0195,-2.0188,-2.0175,-2.0182,-2.0106,-2.0183,-2.0183,-2.0183,-2.0182,-2.0182,-1.9587,-1.9621,-1.9668,-1.9719,-1.9754,-1.9792,-1.9828,-1.986,-1.9905,-1.9963,-1.9978,-2.0034,-2.008,-2.0153,-2.0183,-2.0226,-2.0223,-2.0236,-2.024,-2.0243,-2.0243,-2.0168,-2.0236,-2.0236,-2.0236,-2.0236,-2.0236,0,-1.9644,-1.9675,-1.9721,-1.978,-1.9819,-1.9826,-1.9873,-1.9905,-1.9954,-1.9996,-2.0039,-2.0101,-2.0152,-2.0192,-2.0244,-2.0272,-2.0278,-2.0284,-2.0283,-2.0289,-2.0243,-2.023,-2.0279,-2.0279,-2.0279,-2.0279,-2.0279,-2.0279,-1.9678,-1.9736,-1.9757,-1.9832,-1.9863,-1.9918,-1.9944,-1.998,-2.0014,-2.0081,-2.0124,-2.015,-2.0192,-2.0247,-2.0294,-2.0305,-2.0323,-2.0329,-2.034,-2.0297,-2.0292,-2.0288,-2.0275,-2.0333,-2.0333,-2.0382,-2.0383,-2.0383]}]]